Вернуться в каталог

STARLINK-34849

АктивенСвязьVLEO
NORAD 66005·PAYLOAD·🇺🇸 United States

Запущен Oct 16, 2025 с Cape Canaveral Space Force Station

Loading…

Ближайшие Пролёты (ближайшие 24 часа)

TLE

СвежийSource: CelesTrak SupGP

Эпоха: Sep 14, 2026, 22:46 UTC

1 66005C 25232A   26257.94909722  .00046852  00000+0  13846-2 0  2570
2 66005  53.1580 301.3126 0001122  88.3365 196.9959 15.34360025    14

Отслеживайте STARLINK-34849 в реальном времени с AllMySat

Download on the App Store